This is the latest recevied weather packets stored in our database for station/object EB1TK-13. If no packets are shown the sender has not sent any weather packets the latest 1 day(s).
| Time | Temp. | Humidity | Pressure | Rain* | Wind** | Luminosity | Snow |
|---|---|---|---|---|---|---|---|
| 1778086337 | 15.56° C | 83% | 1013.6 hPa | 0 mm | - | - | - |
| 1778085135 | 15.56° C | 82% | 1013.5 hPa | 0 mm | - | - | - |
| 1778082737 | 16.11° C | 80% | 1013.4 hPa | 0 mm | - | - | - |
| 1778079736 | 16.11° C | 80% | 1013.8 hPa | 0 mm | - | - | - |
| 1778077937 | 16.67° C | 76% | 1013.9 hPa | 0 mm | - | - | - |
| 1778077335 | 16.11° C | 77% | 1014 hPa | 0 mm | - | - | - |
| 1778075536 | 16.67° C | 79% | 1014.2 hPa | 0 mm | - | - | - |
| 1778074337 | 16.11° C | 80% | 1014.4 hPa | 0 mm | - | - | - |
| 1778073737 | 16.11° C | 79% | 1014.4 hPa | 0 mm | - | - | - |
| 1778073135 | 15.56° C | 79% | 1014.5 hPa | 0 mm | - | - | - |
| 1778070137 | 15° C | 83% | 1014.6 hPa | 0 mm | - | - | - |
| 1778067736 | 15° C | 82% | 1014.7 hPa | 0 mm | - | - | - |
| 1778067136 | 15° C | 83% | 1014.7 hPa | 0 mm | - | - | - |
| 1778066537 | 15° C | 83% | 1014.7 hPa | 0 mm | - | - | - |
| 1778064735 | 15° C | 82% | 1014.7 hPa | 0 mm | - | - | - |
| 1778062936 | 15° C | 83% | 1014.8 hPa | 0 mm | - | - | - |
| 1778061737 | 14.44° C | 82% | 1014.8 hPa | 0 mm | - | - | - |
| 1778061135 | 14.44° C | 83% | 1014.8 hPa | 0 mm | - | - | - |
| 1778059336 | 14.44° C | 82% | 1014.6 hPa | 0 mm | - | - | - |
| 1778058137 | 14.44° C | 84% | 1014.5 hPa | 0 mm | - | - | - |
| 1778056935 | 13.89° C | 84% | 1014.6 hPa | 0 mm | - | - | - |
| 1778055736 | 13.89° C | 85% | 1014.5 hPa | 0 mm | - | - | - |
| 1778055136 | 13.33° C | 86% | 1014.5 hPa | 0 mm | - | - | - |
| 1778053937 | 13.33° C | 88% | 1014.4 hPa | 0 mm | - | - | - |
| 1778053337 | 12.78° C | 90% | 1014.5 hPa | 0 mm | - | - | - |
* Rain latest hour (hover to see other rain measurements)
** Current wind speed in m/s (hover to see current wind gust speed)